User: anonymous   Login
Location: Caltech
(34.1382°N, 118.1253°W)
Time: 22:42:36
(UTC-08:00)
Language:

Cosmos 676 Rocket - Orbit

View from above orbital plane
View from above orbital plane
View from above satellite
View from above satellite

Ground track
Ground track

The orbit data is extracted from the following two-line orbital elements,

1  7434U 74071B   17017.88087521 -.00000001 +00000-0 +86110-5 0  9995
2  7434 074.0475 130.0550 0019564 076.8247 283.5087 14.36611981214853
Epoch (UTC): 17 January 2017 21:08:27
Eccentricity: 0.0019564
inclination: 74.0475°
perigee height: 756 km
apogee height: 784 km
right ascension of ascending node: 130.0550°
argument of perigee: 76.8247°
revolutions per day: 14.36611981
mean anomaly at epoch: 283.5087°
orbit number at epoch: 21485

The dashed part of the orbit path shows where the satellite is in the earth's shadow,  

DLR